Главная страница
METAR-TAF:

METAR-TAF

Аэропорты :

Wings Field

Филадельфия / Blue Bell, Пенсильвания, США

широта: 40-08-15N, долгота: 075-15-54W, высота над уровнем моря: 92 м

Текущие метеонаблюдения

Эта сводка был подготовлена 22 минут назад, в 05:55 UTC
Штиль
Температура -1°C
Влажность 59%
Давление 1036 hPa
Видимость: 16.1 км
ясное небо

METAR: KLOM 150555Z AUTO 00000KT 10SM CLR M01/M08 A3059 RMK AO1

Время: 01:17 (06:17 UTC)


TAF: отсутствует

Метеонаблюдения и прогнозы для более 4000 аэропортов (сводки METAR и TAF).

Имеющиеся станции представлены на карте желтыми и красными точками.

Чтобы увидеть название станции, наведите на нее мышь.

Затем щелкните, чтобы увидеть метеонаблюдения и метеопрогнозы.

Управление картой: чтобы увеличить масштаб, щелкните зеленые кнопки с черным крестиком; чтобы уменьшить масштаб, щелкните зеленую кнопку с тире; для просмотра соседних карт щелкайте зеленые стрелки.


METAR-TAF: